Stations météo

réclame
Mon MeteoGroup
Kempten, Allemagne (10946): Température de l'air & dewpoint: 11.12.2018 06:00:00 - 17.12.2018 06:00:00 (CET)Kempten, Allemagne (10946): Température de l'air 5cm & Température de l'air -5cm: 11.12.2018 06:00:00 - 17.12.2018 06:00:00 (CET)Kempten, Allemagne (10946): Température de l'air -20cm & Température de l'air -100cm: 11.12.2018 06:00:00 - 17.12.2018 06:00:00 (CET)Kempten, Allemagne (10946): Vitesse du vent & gusts: 11.12.2018 06:00:00 - 17.12.2018 06:00:00 (CET)Kempten, Allemagne (10946): Direction du vent: 11.12.2018 06:00:00 - 17.12.2018 06:00:00 (CET)Kempten, Allemagne (10946): reduced air pressure: 11.12.2018 06:00:00 - 17.12.2018 06:00:00 (CET)Kempten, Allemagne (10946): visibility: 11.12.2018 06:00:00 - 17.12.2018 06:00:00 (CET)Kempten, Allemagne (10946): Ensoleillement: 11.12.2018 06:00:00 - 17.12.2018 06:00:00 (CET)Kempten, Allemagne (10946): Quantités de précipitations: 11.12.2018 06:00:00 - 17.12.2018 06:00:00 (CET)
Date & Time tt [°C] td [°C] tt 5cm [°C] tt -5cm [°C] tt -20cm [°C] tt -100cm [°C] ff [km/h] ff [knt] fx [km/h] fx [knt] dd ppp [hPa] vv [km] sd [min] rr [mm]
17.12.2018 06:00:00 -5,4 -6,7 -8,0 -0,9 0,6 7,2 5 3 9 5 SSW 1021,6 13 0 0,0
17.12.2018 05:00:00 -5,0 -6,0 -6,6 -0,9 0,6 7,2 8 4 9 5 ESE 1020,7 13 0 0,0
17.12.2018 04:00:00 -5,0 -5,8 -6,4 -0,8 0,6 7,2 6 3 10 5 ESE 1020,0 17 0 0,0
17.12.2018 03:00:00 -5,4 -6,2 -8,1 -0,8 0,6 7,2 5 3 9 5 SE 1019,8 16 0 0,0
17.12.2018 02:00:00 -5,1 -6,0 -8,6 -0,8 0,6 7,2 6 4 10 5 ESE 1019,3 15 0 0,0
17.12.2018 01:00:00 -4,8 -5,6 -7,7 -0,7 0,6 7,2 8 4 10 5 ESE 1019,2 12 0 0,0
17.12.2018 00:00:00 -4,5 -5,3 -7,3 -0,7 0,6 7,2 6 3 8 4 ESE 1019,3 3,1 0 0,0
16.12.2018 23:00:00 -4,1 -4,8 -6,8 -0,6 0,6 7,2 6 3 8 4 E 1019,2 2,0 0 0,0
16.12.2018 22:00:00 -2,8 -3,4 -6,4 -0,6 0,6 7,2 6 3 8 5 ESE 1018,7 8 0 0,0
16.12.2018 21:00:00 -2,2 -2,8 -3,9 -0,6 0,6 7,2 7 4 9 5 ESE 1018,5 8 0 0,0
16.12.2018 20:00:00 -2,0 -2,5 -6,6 -0,5 0,5 7,3 3 1 8 5 S 1018,1 6 0 0,0
16.12.2018 19:00:00 -1,4 -1,9 -6,0 -0,5 0,5 7,3 4 2 7 4 NE 1017,6 6 0 0,0
16.12.2018 18:00:00 -0,4 -1,2 -4,0 -0,5 0,5 7,3 4 2 8 4 SE 1017,3 12 0 0,0
16.12.2018 17:00:00 1,2 -0,5 -4,3 -0,4 0,5 7,3 4 2 19 11 WNW 1016,5 25 0 0,0
16.12.2018 16:00:00 3,2 0,7 -0,5 -0,4 0,5 7,3 9 5 24 13 WSW 1015,3 41 39 0,0
16.12.2018 15:00:00 3,4 0,9 1,7 -0,5 0,5 7,3 12 6 34 18 SW 1014,8 42 12 0,0
16.12.2018 14:00:00 3,4 0,7 1,0 -0,6 0,5 7,3 13 7 32 17 SW 1014,7 26 0 0,0
16.12.2018 13:00:00 3,2 1,2 0,2 -0,6 0,5 7,3 12 6 29 15 SSW 1014,8 23 0 0,0
16.12.2018 12:00:00 2,6 1,3 0,0 -0,7 0,5 7,3 8 5 30 16 SW 1015,3 14 0 0,0
16.12.2018 11:00:00 1,7 0,8 0,0 -0,8 0,5 7,3 12 7 21 11 SW 1015,2 8 0 0,1
16.12.2018 10:00:00 -2,2 -2,9 -0,8 -1,0 0,5 7,3 5 3 13 7 S 1016,0 1,8 0 0,2
16.12.2018 09:00:00 -3,6 -4,6 -2,3 -1,2 0,5 7,4 4 2 14 8 SSE 1016,2 2,8 0 1,8
16.12.2018 08:00:00 -4,4 -5,6 -3,9 -1,4 0,5 7,4 4 2 7 4 S 1016,3 1,6 0 0,6
16.12.2018 07:00:00 -4,9 -6,1 -4,4 -1,7 0,6 7,4 3 2 12 6 S 1016,5 2,1 0 0,7
16.12.2018 06:00:00 -6,0 -8,6 -5,3 -1,9 0,6 7,4 7 4 17 9 SSE 1017,9 13 0 0,0
16.12.2018 05:00:00 -6,7 -9,1 -6,1 -2,1 0,6 7,4 4 2 8 4 SE 1018,2 15 0 0,0
16.12.2018 04:00:00 -7,7 -10,2 -6,8 -2,3 0,6 7,4 2 1 8 4 S 1019,1 17 0 0,0
16.12.2018 03:00:00 -7,9 -10,1 -7,3 -2,4 0,7 7,4 3 2 10 6 SE 1019,7 17 0 0,0
16.12.2018 02:00:00 -8,8 -11,1 -7,8 -2,6 0,7 7,4 5 3 12 6 SSE 1020,6 14 0 0,0
16.12.2018 01:00:00 -9,2 -11,3 -9,0 -2,8 0,8 7,4 4 2 11 6 SSE 1021,4 12 0 0,0
16.12.2018 00:00:00 -9,9 -11,5 -11,0 -3,0 0,8 7,4 4 2 10 5 SSE 1022,8 10 0 0,0
15.12.2018 23:00:00 -9,4 -11,1 -11,0 -2,8 0,8 7,4 6 3 12 6 SE 1023,5 9 0 0,0
15.12.2018 22:00:00 -8,6 -10,4 -10,5 -2,6 0,9 7,5 6 4 11 6 S 1023,7 9 0 0,0
15.12.2018 21:00:00 -8,4 -10,0 -10,5 -2,3 0,9 7,5 2 1 9 5 S 1024,4 9 0 0,0
15.12.2018 20:00:00 -7,9 -9,6 -10,1 -2,1 0,9 7,5 5 3 7 4 ESE 1025,4 7 0 0,0
15.12.2018 19:00:00 -7,2 -8,9 -9,6 -1,7 0,9 7,5 2 1 3 2 W 1025,8 10 0 0,0
15.12.2018 18:00:00 -6,2 -8,6 -8,8 -1,3 0,9 7,5 2 1 7 4 NE 1025,5 8 0 0,0
15.12.2018 17:00:00 -4,7 -8,6 -6,9 -0,9 0,9 7,5 2 1 11 6 ENE 1025,4 13 9 0,0
15.12.2018 16:00:00 -3,5 -8,7 -3,9 -0,6 0,9 7,5 5 3 19 10 ENE 1025,1 14 60 0,0
15.12.2018 15:00:00 -2,8 -8,6 -1,3 -0,4 0,9 7,5 6 4 16 8 NE 1024,9 13 60 0,0
15.12.2018 14:00:00 -3,1 -9,5 -0,2 -0,4 0,9 7,5 8 4 15 8 SE 1024,9 14 60 0,0
15.12.2018 13:00:00 -3,2 -9,5 -0,8 -0,4 0,9 7,5 7 4 16 9 E 1025,4 10 60 0,0
15.12.2018 12:00:00 -4,0 -9,4 -1,5 -0,5 0,9 7,5 9 5 20 11 E 1026,1 18 21 0,0
15.12.2018 11:00:00 -4,7 -9,3 -2,8 -0,8 0,9 7,6 4 2 10 5 S 1027,2 17 0 0,0
15.12.2018 10:00:00 -5,6 -9,6 -4,5 -1,1 0,9 7,6 6 4 12 6 S 1027,5 17 0 0,0
15.12.2018 09:00:00 -6,3 -9,8 -5,5 -1,4 1,0 7,6 5 3 10 5 S 1027,8 17 0 0,0
15.12.2018 08:00:00 -6,2 -9,5 -5,7 -1,4 1,0 7,6 6 3 11 6 S 1027,6 17 0 0,0
15.12.2018 07:00:00 -6,2 -9,4 -5,7 -1,4 1,0 7,6 5 3 11 6 S 1027,5 17 0 0,0
15.12.2018 06:00:00 -6,1 -9,4 -5,6 -1,3 1,0 7,6 7 4 11 6 S 1027,3 16 0 0,0
15.12.2018 05:00:00 -6,0 -9,3 -5,5 -1,3 1,1 7,6 5 3 10 5 S 1027,0 16 0 0,0
15.12.2018 04:00:00 -6,3 -9,4 -5,4 -1,3 1,1 7,6 5 3 10 5 SSE 1026,7 16 0 0,0
15.12.2018 03:00:00 -6,3 -9,3 -5,3 -1,2 1,1 7,6 4 2 9 5 S 1026,6 17 0 0,0
15.12.2018 02:00:00 -6,2 -9,2 -5,5 -1,2 1,1 7,6 4 2 8 5 SSE 1026,0 15 0 0,0
15.12.2018 01:00:00 -6,2 -9,3 -5,6 -1,1 1,2 7,7 4 2 8 5 S 1025,8 14 0 0,0
15.12.2018 00:00:00 -6,5 -9,6 -5,6 -1,1 1,2 7,7 3 2 13 7 S 1025,9 14 0 0,0
14.12.2018 23:00:00 -6,5 -9,3 -5,5 -1,1 1,2 7,7 6 3 11 6 SSE 1025,9 13 0 0,0
14.12.2018 22:00:00 -6,2 -9,0 -5,5 -1,0 1,2 7,7 6 3 13 7 S 1025,8 11 0 0,0
14.12.2018 21:00:00 -5,5 -8,5 -5,0 -0,9 1,2 7,7 6 3 12 7 S 1025,0 12 0 0,0
14.12.2018 20:00:00 -4,4 -8,4 -4,2 -0,8 1,3 7,7 8 4 13 7 SE 1023,9 15 0 0,0
14.12.2018 19:00:00 -4,4 -8,0 -4,2 -0,7 1,3 7,7 4 2 12 7 S 1023,6 13 0 0,0
14.12.2018 18:00:00 -4,5 -8,4 -4,2 -0,6 1,3 7,7 7 4 12 6 SE 1022,8 15 0 0,0
14.12.2018 17:00:00 -4,4 -8,2 -4,7 -0,5 1,3 7,7 5 3 12 6 E 1022,4 15 0 0,0
14.12.2018 16:00:00 -4,3 -8,0 -5,3 -0,3 1,3 7,7 5 3 13 7 E 1021,7 15 14 0,0
14.12.2018 15:00:00 -4,0 -8,3 -3,8 -0,2 1,3 7,7 7 4 15 8 E 1020,8 18 11 0,0
14.12.2018 14:00:00 -3,2 -8,6 -0,7 -0,2 1,3 7,7 6 3 16 9 ENE 1020,2 13 42 0,0
14.12.2018 13:00:00 -3,3 -8,5 -1,7 -0,3 1,3 7,8 8 4 19 10 ENE 1020,5 16 50 0,0
14.12.2018 12:00:00 -3,1 -8,2 0,4 -0,4 1,3 7,8 9 5 15 8 E 1020,3 18 15 0,0
14.12.2018 11:00:00 -4,4 -8,5 -2,6 -0,6 1,3 7,8 7 4 15 8 SE 1020,8 18 0 0,0
14.12.2018 10:00:00 -7,0 -10,3 -5,4 -0,8 1,3 7,8 3 2 9 5 SSW 1021,1 22 8 0,0
14.12.2018 09:00:00 -8,1 -10,7 -7,0 -1,1 1,4 7,8 4 2 8 5 SSW 1021,0 21 0 0,0
14.12.2018 08:00:00 -8,1 -10,5 -7,2 -1,1 1,4 7,8 5 3 10 6 S 1020,5 21 0 0,0
14.12.2018 07:00:00 -8,1 -10,7 -6,8 -1,0 1,4 7,8 8 4 12 7 S 1020,2 22 0 0,0
14.12.2018 06:00:00 -7,8 -10,3 -6,7 -0,9 1,5 7,8 5 3 10 5 S 1019,9 23 0 0,0
14.12.2018 05:00:00 -7,2 -9,9 -6,3 -0,8 1,5 7,8 4 2 11 6 S 1019,4 21 0 0,0
14.12.2018 04:00:00 -7,3 -9,9 -6,5 -0,7 1,5 7,8 5 3 9 5 S 1019,0 22 0 0,0
14.12.2018 03:00:00 -7,0 -9,6 -6,7 -0,6 1,6 7,9 5 3 9 5 S 1018,8 24 0 0,0
14.12.2018 02:00:00 -6,7 -9,3 -5,6 -0,5 1,6 7,9 4 2 8 4 S 1018,7 23 0 0,0
14.12.2018 01:00:00 -6,0 -8,6 -5,7 -0,5 1,7 7,9 3 2 10 5 S 1018,2 23 0 0,0
14.12.2018 00:00:00 -6,1 -9,0 -5,5 -0,4 1,7 7,9 4 2 15 8 SE 1018,1 20 0 0,0
13.12.2018 23:00:00 -3,3 -6,6 -4,1 -0,3 1,7 7,9 5 3 16 9 ENE 1016,7 13 0 0,0
13.12.2018 22:00:00 -3,0 -6,8 -3,9 -0,2 1,7 7,9 7 4 19 10 E 1016,6 15 0 0,0
13.12.2018 21:00:00 -2,5 -5,9 -2,7 -0,1 1,7 7,9 5 3 18 10 E 1016,2 14 0 0,0
13.12.2018 20:00:00 -2,4 -6,0 -2,8 0,0 1,7 7,9 6 4 17 9 E 1016,0 15 0 0,0
13.12.2018 19:00:00 -2,3 -6,0 -2,4 0,0 1,7 7,9 5 3 18 10 ENE 1015,9 17 0 0,0
13.12.2018 18:00:00 -2,2 -6,0 -2,5 0,1 1,7 7,9 6 3 20 11 E 1015,8 16 0 0,0
13.12.2018 17:00:00 -1,9 -6,1 -2,1 0,1 1,7 7,9 6 4 21 11 ENE 1015,5 19 0 0,0
13.12.2018 16:00:00 -1,5 -6,3 -1,5 0,0 1,7 8,0 7 4 22 12 ENE 1015,1 24 0 0,0
13.12.2018 15:00:00 -1,3 -6,2 -1,1 0,0 1,8 8,0 8 5 18 10 E 1015,0 26 22 0,0
13.12.2018 14:00:00 -1,8 -6,4 -1,8 0,0 1,8 8,0 8 4 21 11 ESE 1015,0 33 14 0,0
13.12.2018 13:00:00 -1,9 -6,9 -1,2 0,0 1,8 8,0 9 5 20 11 ENE 1015,4 31 28 0,0
13.12.2018 12:00:00 -2,0 -6,6 -0,8 -0,1 1,8 8,0 9 5 19 10 E 1015,7 33 3 0,0
13.12.2018 11:00:00 -3,0 -6,5 -1,6 -0,1 1,8 8,0 4 2 12 6 SSE 1016,6 27 2 0,0
13.12.2018 10:00:00 -4,7 -7,8 -3,5 -0,2 1,9 8,0 6 4 12 7 S 1017,5 29 0 0,0
13.12.2018 09:00:00 -5,9 -8,6 -4,9 -0,2 1,9 8,0 4 2 11 6 SSE 1018,3 36 0 0,0
13.12.2018 08:00:00 -6,5 -9,4 -5,9 -0,1 2,0 8,0 4 2 10 6 S 1018,5 33 0 0,0
13.12.2018 07:00:00 -6,5 -9,2 -7,0 0,0 2,0 8,0 5 3 12 7 S 1018,5 39 0 0,0
13.12.2018 06:00:00 -5,4 -8,3 -5,3 0,2 2,0 8,0 6 3 10 5 S 1018,4 44 0 0,0
13.12.2018 05:00:00 -4,7 -7,8 -4,1 0,3 2,0 8,0 5 3 11 6 S 1018,9 38 0 0,0
13.12.2018 04:00:00 -3,8 -6,9 -3,1 0,3 2,0 8,1 5 3 14 8 S 1019,0 36 0 0,0
13.12.2018 03:00:00 -1,2 -4,2 -1,7 0,4 2,1 8,1 3 2 19 10 ESE 1018,8 18 0 0,0
13.12.2018 02:00:00 -1,0 -4,5 -1,3 0,4 2,1 8,1 6 3 19 10 E 1019,0 20 0 0,0
13.12.2018 01:00:00 -1,0 -4,5 -1,2 0,4 2,1 8,1 7 4 18 10 E 1019,6 24 0 0,0
13.12.2018 00:00:00 -0,8 -4,7 -1,1 0,4 2,1 8,1 10 5 20 11 E 1019,9 26 0 0,0
12.12.2018 23:00:00 -0,8 -4,5 -1,1 0,4 2,1 8,1 9 5 21 11 E 1020,5 23 0 0,0
12.12.2018 22:00:00 -0,9 -4,6 -1,1 0,4 2,1 8,1 7 4 19 11 E 1021,2 26 0 0,0
12.12.2018 21:00:00 -0,9 -4,6 -1,1 0,4 2,1 8,1 8 5 24 13 ENE 1021,4 23 0 0,0
12.12.2018 20:00:00 -1,6 -4,2 -1,7 0,4 2,1 8,1 3 2 19 10 NE 1021,8 15 0 0,0
12.12.2018 19:00:00 -1,3 -4,6 -2,6 0,4 2,2 8,1 6 3 15 8 E 1021,8 15 0 0,0
12.12.2018 18:00:00 -0,8 -4,2 -1,6 0,4 2,2 8,1 9 5 17 9 E 1022,0 17 0 0,0
12.12.2018 17:00:00 -1,4 -4,5 -2,7 0,4 2,2 8,1 4 2 13 7 ENE 1022,3 17 0 0,0
12.12.2018 16:00:00 -0,5 -3,9 -1,4 0,4 2,1 8,2 3 2 19 11 E 1022,3 20 26 0,0
12.12.2018 15:00:00 0,1 -3,9 1,1 0,4 2,1 8,2 13 7 24 13 E 1022,4 12 60 0,0
12.12.2018 14:00:00 1,3 -3,5 2,4 0,3 2,0 8,2 9 5 19 10 ENE 1022,2 19 60 0,0
12.12.2018 13:00:00 1,4 -4,3 1,8 0,1 2,1 8,2 5 3 12 7 ENE 1022,8 24 60 0,0
12.12.2018 12:00:00 -0,6 -6,9 0,0 0,0 2,1 8,2 4 2 7 4 SE 1024,3 30 60 0,0
12.12.2018 11:00:00 -2,3 -7,4 -2,5 0,0 2,1 8,2 5 3 11 6 S 1025,4 22 60 0,0
12.12.2018 10:00:00 -3,0 -6,8 -3,2 -0,1 2,2 8,2 6 3 11 6 S 1025,7 17 60 0,0
12.12.2018 09:00:00 -5,2 -7,1 -6,5 -0,1 2,2 8,2 5 3 10 5 ESE 1026,5 35 9 0,0
12.12.2018 08:00:00 -5,8 -7,1 -7,7 0,0 2,3 8,2 3 2 7 4 SSE 1026,9 25 0 0,0
12.12.2018 07:00:00 -5,0 -6,8 -7,1 0,1 2,3 8,2 4 2 13 7 SSW 1026,3 35 0 0,0
12.12.2018 06:00:00 -5,1 -6,2 -7,3 0,2 2,4 8,2 6 3 10 5 S 1026,0 33 0 0,0
12.12.2018 05:00:00 -4,5 -5,8 -6,3 0,3 2,4 8,2 5 3 9 5 E 1026,1 36 0 0,0
12.12.2018 04:00:00 -3,6 -5,1 -5,1 0,3 2,5 8,3 5 3 8 5 E 1026,1 31 0 0,0
12.12.2018 03:00:00 -2,8 -4,7 -4,1 0,4 2,5 8,3 5 3 12 7 SE 1025,8 33 0 0,0
12.12.2018 02:00:00 -2,5 -4,1 -2,8 0,4 2,6 8,3 6 3 14 7 S 1025,4 23 0 0,0
12.12.2018 01:00:00 -3,6 -4,7 -4,6 0,4 2,7 8,3 6 3 8 4 ESE 1026,1 14 0 0,0
12.12.2018 00:00:00 -2,7 -4,2 -4,2 0,5 2,7 8,3 5 3 8 4 ESE 1025,6 16 0 0,0
11.12.2018 23:00:00 -1,8 -3,3 -3,1 0,6 2,8 8,3 4 2 12 7 SE 1025,4 13 0 0,0
11.12.2018 22:00:00 -0,7 -3,0 -1,7 0,7 2,9 8,3 7 4 13 7 SSW 1025,0 19 0 0,0
11.12.2018 21:00:00 -0,6 -2,9 -1,7 0,7 3,0 8,3 3 2 13 7 SW 1025,4 17 0 0,0
11.12.2018 20:00:00 -0,2 -2,8 -1,4 0,8 3,1 8,3 5 3 11 6 SSW 1025,5 19 0 0,0
11.12.2018 19:00:00 0,2 -2,7 -0,8 1,0 3,2 8,3 4 2 11 6 S 1025,4 18 0 0,0
11.12.2018 18:00:00 0,4 -3,2 -0,6 1,2 3,3 8,3 4 2 15 8 SW 1025,1 33 0 0,0
11.12.2018 17:00:00 0,5 -2,9 -0,5 1,8 3,3 8,3 5 3 15 8 S 1024,7 36 0 0,0
11.12.2018 16:00:00 1,1 -3,2 0,6 2,6 3,2 8,3 9 5 18 10 W 1024,5 34 0 0,0
11.12.2018 15:00:00 1,4 -3,4 1,6 3,3 3,1 8,4 8 5 19 10 W 1024,3 42 14 0,0
11.12.2018 14:00:00 1,0 -3,6 1,1 2,9 2,9 8,4 10 5 27 14 SW 1024,5 42 0 0,0
11.12.2018 13:00:00 0,8 -2,9 0,8 2,1 2,8 8,4 6 3 16 9 SSW 1025,1 30 0 0,0
11.12.2018 12:00:00 0,3 -3,3 -0,1 1,6 2,8 8,4 6 3 19 11 SSW 1025,8 19 0 0,0
11.12.2018 11:00:00 0,5 -3,4 -0,2 1,3 2,8 8,4 9 5 30 16 WSW 1025,8 30 1 0,0
11.12.2018 10:00:00 -0,4 -3,4 -0,9 1,0 2,8 8,4 13 7 25 13 WSW 1026,0 9 0 0,0
11.12.2018 09:00:00 -0,3 -3,6 -1,2 0,9 2,8 8,4 11 6 26 14 SW 1026,0 28 0 0,1
11.12.2018 08:00:00 -0,3 -2,8 -1,1 0,9 2,9 8,4 9 5 19 10 SW 1025,6 22 0 0,0
11.12.2018 07:00:00 -0,4 -3,0 -1,2 1,0 2,9 8,4 8 4 16 9 WSW 1025,7 6 0 0,1
11.12.2018 06:00:00 -0,3 -2,6 -1,4 1,0 2,9 8,4 7 4 14 7 W 1025,6 27 0 0,0

tt = Température de l'air
td = dewpoint
tt 5cm = Température de l'air 5cm
tt -5cm = Température de l'air -5cm
tt -20cm = Température de l'air -20cm
tt -100cm = Température de l'air -100cm
ff = Vitesse du vent
fx = gusts
dd = Direction du vent
ppp = reduced air pressure
vv = visibility
sd = Ensoleillement
rr = Quantités de précipitations

stations d'obs. à proximité